[[[{"header":{"parameterUnit":"kt","parameterCategory":2,"dx":1,"dy":1,"la1":30.253999710083008,"la2":30.299108505249023,"lo1":-89.0895004272461,"lo2":-89.04439544677734,"nx":28,"ny":28,"refTime":"2022-09-21T09:00:00:Z","depth":"0","parameterNumber":2,"parameterNumberName":"U-component_of_CURRENTS"},"data":[0.0994,0.1056,0.1167,0.1231,0.1303,0.1336,0.1384,0.1462,0.1565,0.175,0.1915,0.2071,0.2352,0.2824,0.3144,0.3212,0.2876,0.297,0.2627,0.3061,0.3011,0.2963,0.3052,0.3432,0.3432,0.2221,0.2214,0.2209,0.1081,0.1199,0.127,0.1356,0.139,0.1457,0.1531,0.1569,0.1636,0.1767,0.1844,0.2131,0.2395,0.2603,0.2838,0.2936,0.2681,0.2958,0.2602,0.2397,0.2706,0.28,0.3132,0.3132,0.3132,0.3132,0.3132,0.3131,0.127,0.1291,0.1403,0.146,0.1498,0.1555,0.1567,0.1648,0.1698,0.1776,0.1843,0.1958,0.219,0.2318,0.2368,0.2563,0.2134,0.2483,0.2426,0.2082,0.1971,0.2349,0.2437,0.2434,0.2432,0.243,0.2429,0,0.1416,0.1487,0.1514,0.1583,0.1607,0.1629,0.1665,0.1685,0.1762,0.1792,0.1854,0.1897,0.2006,0.2116,0.2141,0.2089,0.1877,0.1983,0.2037,0.2214,0.2004,0.1805,0.1989,0.2041,0.2036,0.2032,0.203,0.2028,0.163,0.1608,0.1687,0.1701,0.1712,0.1711,0.1729,0.1781,0.1797,0.1848,0.1851,0.1891,0.193,0.1902,0.1896,0.1842,0.162,0.1877,0.1802,0.1982,0.1928,0.1622,0.1471,0.1977,0.1984,0.1989,0.1993,0,0.1758,0.1806,0.176,0.1809,0.1818,0.1793,0.1825,0.1824,0.1855,0.1847,0.185,0.1882,0.1886,0.185,0.1677,0.1629,0.1512,0.1495,0.177,0.1771,0.1899,0.1879,0.1588,0.1418,0.153,0.1533,0.1537,0,0.1944,0.1879,0.1963,0.1919,0.1887,0.1903,0.1866,0.1867,0.1881,0.1874,0.188,0.1878,0.1789,0.175,0.1642,0.1593,0.1488,0.1453,0.142,0.1569,0.1599,0.1707,0.17,0.1201,0.1201,0.1201,0.1201,0,0.2112,0.205,0.2008,0.198,0.1963,0.1948,0.1933,0.1914,0.1899,0.1883,0.1888,0.1849,0.1826,0.1693,0.163,0.1591,0.1486,0.138,0.1413,0.1426,0.1601,0.1635,0.1645,0.1201,0.1201,0.1201,0.1201,0,0.2233,0.2225,0.2127,0.2123,0.2098,0.2025,0.199,0.1926,0.1899,0.1894,0.1879,0.1876,0.1812,0.1764,0.1633,0.1671,0.1548,0.147,0.1464,0.1672,0.1645,0.1814,0.1748,0.1837,0.1425,0.1426,0.1427,0,0.2421,0.2328,0.2334,0.2203,0.214,0.2133,0.207,0.2012,0.1974,0.1925,0.1899,0.1851,0.1849,0.183,0.1725,0.167,0.1555,0.1608,0.1502,0.1503,0.1679,0.1571,0.1749,0.1756,0.1445,0.1443,0.1442,0,0.2548,0.2529,0.2501,0.2478,0.2377,0.2301,0.2216,0.2125,0.2107,0.1998,0.1965,0.186,0.1884,0.1862,0.1827,0.1718,0.1588,0.1706,0.1703,0.1732,0.1413,0.1577,0.1581,0.1483,0.148,0.1478,0.1455,0,0.2706,0.2655,0.2608,0.2524,0.2456,0.2355,0.2286,0.2218,0.2188,0.2133,0.207,0.1995,0.1951,0.189,0.1884,0.1776,0.1815,0.1765,0.181,0.1697,0.1705,0.1693,0.1861,0.1864,0.1865,0.1867,0,0,0.2839,0.2771,0.2761,0.2683,0.2627,0.2579,0.2481,0.2401,0.2259,0.2244,0.2236,0.2128,0.2083,0.2004,0.1952,0.1904,0.189,0.1959,0.1749,0.1736,0.1724,0.1725,0.1712,0.187,0.1871,0.1872,0.1872,0,0.2882,0.2872,0.2817,0.2744,0.2654,0.259,0.2567,0.2439,0.2393,0.2275,0.2283,0.2227,0.213,0.2086,0.2063,0.1934,0.1977,0.1916,0.1884,0.1767,0.1751,0.1737,0.1735,0.1722,0.1877,0.1877,0.1876,0,0.2966,0.2938,0.2911,0.2805,0.2732,0.263,0.2635,0.2531,0.245,0.2462,0.2343,0.2327,0.2297,0.2195,0.2161,0.2176,0.2035,0.2076,0.2065,0.2143,0.203,0.2011,0.1994,0.222,0.2221,0.2222,0,0,0.2999,0.2968,0.2876,0.2804,0.2768,0.2671,0.2608,0.256,0.2481,0.2444,0.2403,0.2367,0.2328,0.2289,0.2258,0.2156,0.2174,0.2117,0.2101,0.2087,0.2156,0.2041,0.2022,0.2226,0.2226,0.2226,0,0,0.2994,0.2937,0.2934,0.2857,0.2755,0.2625,0.2563,0.2531,0.2444,0.2463,0.2452,0.2445,0.2381,0.2367,0.2416,0.2268,0.2335,0.2324,0.2266,0.2246,0.223,0.2326,0.2473,0,0,0,0,0,0.3005,0.2953,0.2952,0.2931,0.2779,0.2635,0.2605,0.2537,0.2563,0.2495,0.2466,0.251,0.2374,0.2418,0.241,0.2358,0.2277,0.2268,0.2259,0.2164,0.2143,0.2125,0,0,0,0,0,0,0.2996,0.2973,0.2952,0.2834,0.2799,0.2637,0.2659,0.2636,0.2567,0.2564,0.2508,0.2508,0.2498,0.2425,0.2417,0.2367,0.2476,0.2273,0.2266,0.2259,0.2157,0.214,0.2125,0,0,0,0,0,0.2989,0.297,0.2761,0.2831,0.2801,0.2696,0.2662,0.2643,0.2576,0.2548,0.2541,0.2534,0.2496,0.2491,0.2421,0.2369,0.2482,0.2479,0.2268,0.2262,0.2257,0.2148,0,0,0,0,0,0,0.2984,0.2921,0.2751,0.2737,0.2867,0.2701,0.2679,0.2649,0.2564,0.2555,0.2578,0.2577,0.2494,0.2491,0.2486,0.2368,0.2486,0.2483,0.2481,0.2264,0.2259,0.2255,0,0,0,0,0,0,0.2931,0.291,0.2743,0.2792,0.2782,0.2706,0.2686,0.2647,0.2569,0.2599,0.2595,0.258,0.2559,0.249,0.2487,0.2421,0.249,0.2487,0.2485,0.2484,0.226,0.2256,0,0,0,0,0,0,0.292,0.2901,0.2794,0.2787,0.2778,0.2602,0.2673,0.2552,0.2517,0.2606,0.2524,0.2528,0.2562,0.2554,0.2487,0.2422,0.2422,0.249,0.2488,0.2486,0.2485,0,0,0,0,0,0,0,0.291,0.307,0.2849,0.2782,0.2774,0.2606,0.26,0.2595,0.2518,0.2521,0.2524,0.2526,0.2507,0.2504,0.25,0.2423,0,0,0.249,0.2489,0,0,0,0,0,0,0,0,0.3074,0.3071,0.2848,0.2846,0.2844,0.2605,0.2601,0.2596,0.2518,0.2521,0.2523,0.2525,0.2506,0.2504,0.2501,0,0,0,0,0,0,0,0,0,0,0,0,0,0,0,0.2848,0.2846,0,0.2604,0.2601,0.2597,0.2519,0.2521,0.2523,0.2524,0.2505,0.2503,0.2501,0,0,0,0,0,0,0,0,0,0,0,0,0,0,0,0,0,0,0,0,0,0,0,0,0,0,0,0,0,0,0,0,0,0,0,0,0,0,0,0,0,0,0,0,0,0,0,0,0,0,0,0,0,0,0,0,0,0,0,0,0,0,0,0,0,0,0,0,0]}],[{"header":{"parameterUnit":"kt","parameterCategory":2,"dx":1,"dy":1,"la1":30.253999710083008,"la2":30.299108505249023,"lo1":-89.0895004272461,"lo2":-89.04439544677734,"nx":28,"ny":28,"refTime":"2022-09-21T09:00:00:Z","depth":"0","parameterNumber":3,"parameterNumberName":"V-component_of_CURRENTS"},"data":[-0.1854,-0.1765,-0.1776,-0.1655,-0.1625,-0.1499,-0.1439,-0.136,-0.1306,-0.119,-0.1133,-0.1118,-0.1037,-0.1166,-0.1195,-0.1235,-0.0701,-0.0872,-0.0474,-0.1169,-0.1208,-0.1244,-0.114,-0.0868,-0.0866,0.0518,0.0529,0.0537,-0.1985,-0.1963,-0.1904,-0.1836,-0.1782,-0.1795,-0.1703,-0.1626,-0.1546,-0.1494,-0.1428,-0.1406,-0.1505,-0.1685,-0.1816,-0.1771,-0.1612,-0.1671,-0.1408,-0.1095,-0.1988,-0.191,-0.1798,-0.1798,-0.1799,-0.1799,-0.1799,-0.1799,-0.22,-0.2143,-0.2114,-0.2044,-0.1999,-0.1921,-0.1834,-0.1805,-0.1731,-0.1645,-0.1669,-0.1609,-0.176,-0.2036,-0.2185,-0.2234,-0.2083,-0.2198,-0.2074,-0.1941,-0.1509,-0.2434,-0.2466,-0.2467,-0.2468,-0.2469,-0.2469,0,-0.2354,-0.2358,-0.2299,-0.2245,-0.2181,-0.2094,-0.203,-0.1994,-0.1961,-0.1913,-0.1851,-0.1831,-0.1967,-0.206,-0.2265,-0.2387,-0.2171,-0.2506,-0.2292,-0.2051,-0.1845,-0.1444,-0.2375,-0.2485,-0.2486,-0.2486,-0.2487,-0.2487,-0.2518,-0.2483,-0.2435,-0.2384,-0.2343,-0.227,-0.2205,-0.2182,-0.2127,-0.2064,-0.2019,-0.2028,-0.2002,-0.215,-0.2311,-0.2482,-0.2249,-0.2521,-0.2535,-0.2311,-0.213,-0.1961,-0.1633,-0.2498,-0.2497,-0.2496,-0.2495,0,-0.2591,-0.2592,-0.2507,-0.2455,-0.2437,-0.2371,-0.2274,-0.2217,-0.2203,-0.2117,-0.2106,-0.2095,-0.2137,-0.2216,-0.2324,-0.2416,-0.2322,-0.2551,-0.2465,-0.2416,-0.2276,-0.2141,-0.2004,-0.1627,-0.2656,-0.2656,-0.2656,0,-0.2673,-0.261,-0.2587,-0.2535,-0.2461,-0.2409,-0.2328,-0.2289,-0.2241,-0.2174,-0.22,-0.2155,-0.2233,-0.2263,-0.2357,-0.2444,-0.2457,-0.2527,-0.2487,-0.2412,-0.2399,-0.2166,-0.2017,-0.2565,-0.2564,-0.2563,-0.2563,0,-0.2718,-0.2639,-0.2586,-0.2543,-0.2439,-0.2407,-0.2357,-0.2295,-0.2245,-0.2226,-0.219,-0.2235,-0.2204,-0.2314,-0.2339,-0.2336,-0.244,-0.2401,-0.2445,-0.2441,-0.2339,-0.232,-0.2305,-0.2561,-0.2561,-0.2561,-0.2561,0,-0.2722,-0.2685,-0.2611,-0.2513,-0.2484,-0.2426,-0.2338,-0.2287,-0.2247,-0.2224,-0.2232,-0.2185,-0.2227,-0.2235,-0.2321,-0.2267,-0.2322,-0.2328,-0.2329,-0.2225,-0.2096,-0.2145,-0.2294,-0.2078,-0.2284,-0.2282,-0.228,0,-0.2758,-0.2689,-0.2638,-0.2549,-0.2493,-0.2422,-0.2374,-0.2313,-0.2272,-0.2223,-0.2224,-0.2144,-0.2162,-0.2113,-0.2192,-0.2119,-0.2224,-0.2151,-0.2106,-0.2106,-0.2085,-0.2244,-0.2172,-0.2262,-0.2253,-0.2256,-0.2258,0,-0.2765,-0.268,-0.2665,-0.262,-0.2512,-0.2446,-0.2407,-0.233,-0.2298,-0.2251,-0.2211,-0.2143,-0.2129,-0.2049,-0.1968,-0.2022,-0.2172,-0.1962,-0.1958,-0.2037,-0.2253,-0.2209,-0.2223,-0.212,-0.2124,-0.2127,-0.2236,0,-0.2723,-0.2685,-0.267,-0.2587,-0.2522,-0.2465,-0.2379,-0.2335,-0.2286,-0.2217,-0.2162,-0.2048,-0.1926,-0.1907,-0.1824,-0.1869,-0.1831,-0.1755,-0.1693,-0.1798,-0.1824,-0.1842,-0.1571,-0.1567,-0.1564,-0.1561,0,0,-0.2735,-0.2694,-0.2636,-0.2589,-0.2525,-0.2444,-0.2389,-0.232,-0.2156,-0.2126,-0.2098,-0.189,-0.1782,-0.1697,-0.1724,-0.1637,-0.1638,-0.1612,-0.1722,-0.174,-0.1757,-0.179,-0.1811,-0.1555,-0.1554,-0.1553,-0.1552,0,-0.2706,-0.2681,-0.266,-0.259,-0.2497,-0.2409,-0.2408,-0.2261,-0.2204,-0.2102,-0.1983,-0.1928,-0.1716,-0.1636,-0.156,-0.1593,-0.1524,-0.1543,-0.1666,-0.1693,-0.1716,-0.1735,-0.1773,-0.1795,-0.1544,-0.1544,-0.1545,0,-0.2683,-0.263,-0.2613,-0.2522,-0.244,-0.2368,-0.2288,-0.2211,-0.2152,-0.1982,-0.1871,-0.1775,-0.1608,-0.1523,-0.1477,-0.1433,-0.1433,-0.137,-0.1384,-0.1404,-0.1427,-0.1453,-0.1476,-0.1193,-0.1193,-0.1193,0,0,-0.2661,-0.2637,-0.2527,-0.2506,-0.2473,-0.2331,-0.2267,-0.2186,-0.2057,-0.1995,-0.1862,-0.1725,-0.1616,-0.1546,-0.1425,-0.1343,-0.1326,-0.1337,-0.1353,-0.1368,-0.1396,-0.1423,-0.1446,-0.1192,-0.1192,-0.1192,0,0,-0.263,-0.2529,-0.2505,-0.2473,-0.2383,-0.2206,-0.2162,-0.2088,-0.1953,-0.1942,-0.1771,-0.1727,-0.1644,-0.153,-0.1538,-0.1413,-0.1334,-0.1328,-0.1506,-0.1524,-0.1539,-0.1608,-0.1415,0,0,0,0,0,-0.2556,-0.2553,-0.2535,-0.2517,-0.235,-0.2237,-0.2202,-0.2067,-0.2031,-0.1999,-0.1866,-0.178,-0.15,-0.1503,-0.1462,-0.1486,-0.1181,-0.1183,-0.1185,-0.1393,-0.1414,-0.1432,0,0,0,0,0,0,-0.2548,-0.253,-0.2533,-0.2375,-0.2335,-0.2235,-0.2144,-0.2104,-0.203,-0.2015,-0.1806,-0.1773,-0.1646,-0.1513,-0.1479,-0.1506,-0.1426,-0.1182,-0.1183,-0.1185,-0.14,-0.1417,-0.1432,0,0,0,0,0,-0.2541,-0.2526,-0.2319,-0.2369,-0.2334,-0.2158,-0.2144,-0.211,-0.2037,-0.1848,-0.181,-0.1947,-0.1649,-0.1611,-0.1492,-0.1526,-0.1449,-0.1436,-0.1183,-0.1184,-0.1185,-0.1408,0,0,0,0,0,0,-0.2535,-0.2452,-0.2305,-0.2286,-0.2379,-0.2158,-0.2128,-0.2116,-0.187,-0.1836,-0.1981,-0.1972,-0.165,-0.1621,-0.1592,-0.1542,-0.1467,-0.1455,-0.1447,-0.1184,-0.1185,-0.1186,0,0,0,0,0,0,-0.246,-0.2438,-0.2294,-0.2315,-0.2296,-0.2159,-0.2133,-0.2008,-0.1869,-0.2014,-0.2,-0.198,-0.1707,-0.1627,-0.1605,-0.1412,-0.1481,-0.1469,-0.1461,-0.1456,-0.1185,-0.1186,0,0,0,0,0,0,-0.2446,-0.2427,-0.2318,-0.2304,-0.2287,-0.2047,-0.2042,-0.1881,-0.1888,-0.2026,-0.1887,-0.1887,-0.1717,-0.169,-0.1614,-0.1432,-0.1417,-0.1481,-0.1473,-0.1467,-0.1463,0,0,0,0,0,0,0,-0.2435,-0.2623,-0.2436,-0.2295,-0.2279,-0.2108,-0.2101,-0.2094,-0.1888,-0.1888,-0.1887,-0.1887,-0.1549,-0.1536,-0.1523,-0.1448,0,0,-0.1482,-0.1476,0,0,0,0,0,0,0,0,-0.2625,-0.2623,-0.2436,-0.2432,-0.2429,-0.2107,-0.2101,-0.2096,-0.1888,-0.1888,-0.1887,-0.1887,-0.1546,-0.1535,-0.1524,0,0,0,0,0,0,0,0,0,0,0,0,0,0,0,-0.2435,-0.2433,0,-0.2106,-0.2101,-0.2097,-0.1888,-0.1888,-0.1888,-0.1887,-0.1543,-0.1534,-0.1525,0,0,0,0,0,0,0,0,0,0,0,0,0,0,0,0,0,0,0,0,0,0,0,0,0,0,0,0,0,0,0,0,0,0,0,0,0,0,0,0,0,0,0,0,0,0,0,0,0,0,0,0,0,0,0,0,0,0,0,0,0,0,0,0,0,0,0,0,0]}]],[[{"header":{"parameterUnit":"kt","parameterCategory":2,"dx":1,"dy":1,"la1":30.253999710083008,"la2":30.299108505249023,"lo1":-89.0895004272461,"lo2":-89.04439544677734,"nx":28,"ny":28,"refTime":"2022-09-21T09:00:00:Z","depth":"2","parameterNumber":2,"parameterNumberName":"U-component_of_CURRENTS"},"data":[-0.2669,-0.2602,-0.2627,-0.2426,-0.2354,-0.2215,-0.2168,-0.2083,-0.1954,-0.1603,-0.1356,-0.1191,-0.093,-0.0655,-0.0454,-0.0308,-0.0593,-0.0267,-0.041,-0.1008,-0.1073,-0.1173,-0.1426,0,0,0,0,0,-0.279,-0.2778,-0.2736,-0.2717,-0.262,-0.2674,-0.2651,-0.2581,-0.2421,-0.2241,-0.2006,-0.1534,-0.1106,-0.0885,-0.0505,-0.0263,-0.0488,-0.028,-0.0721,-0.0787,-0.0849,-0.0974,-0.0181,-0.0181,-0.0181,-0.018,0,0,-0.3004,-0.2979,-0.3028,-0.2989,-0.2963,-0.2927,-0.2858,-0.2871,-0.2788,-0.2658,-0.2579,-0.2198,-0.1933,-0.1128,-0.0879,-0.0727,-0.0828,-0.0896,-0.0943,-0.0994,-0.1098,-0.1019,-0.0355,-0.0356,-0.0357,-0.0357,-0.0358,0,-0.3257,-0.3259,-0.3296,-0.3299,-0.3254,-0.3259,-0.3239,-0.3211,-0.3309,-0.3223,-0.3018,-0.2808,-0.2293,-0.1894,-0.1394,-0.1221,-0.1684,-0.1359,-0.1812,-0.2075,-0.2013,-0.2004,-0.2072,-0.153,-0.1538,-0.1543,-0.1548,-0.1551,-0.3482,-0.3496,-0.3609,-0.3588,-0.3609,-0.3578,-0.3548,-0.3655,-0.3625,-0.3574,-0.3491,-0.3254,-0.3015,-0.2475,-0.2273,-0.1871,-0.2157,-0.1565,-0.1844,-0.2268,-0.2242,-0.2301,-0.2354,-0.1632,-0.1621,-0.1613,-0.1606,0,-0.359,-0.3751,-0.3785,-0.3928,-0.3941,-0.3875,-0.3895,-0.3841,-0.3871,-0.3771,-0.3751,-0.3752,-0.3493,-0.3428,-0.3174,-0.3049,-0.2753,-0.2525,-0.247,-0.2384,-0.2414,-0.245,-0.1856,-0.1839,-0.1825,-0.1814,-0.1804,0,-0.3848,-0.3843,-0.4054,-0.4063,-0.4034,-0.4171,-0.4071,-0.4106,-0.4099,-0.403,-0.4134,-0.402,-0.4081,-0.3891,-0.3798,-0.335,-0.3486,-0.3144,-0.3054,-0.3106,-0.3079,-0.3649,-0.3673,-0.3501,-0.3506,-0.3511,-0.3515,0,-0.3927,-0.4114,-0.4159,-0.421,-0.4379,-0.4329,-0.4361,-0.4378,-0.4356,-0.4321,-0.4266,-0.4261,-0.4171,-0.4078,-0.3943,-0.4075,-0.3633,-0.3799,-0.327,-0.3239,-0.3093,-0.3055,-0.3521,-0.3521,-0.3523,-0.3525,-0.3527,0,-0.4114,-0.4233,-0.4314,-0.4433,-0.4448,-0.4465,-0.4444,-0.4488,-0.4479,-0.4459,-0.4437,-0.4442,-0.4403,-0.4456,-0.4255,-0.4396,-0.4205,-0.4124,-0.41,-0.3745,-0.3736,-0.3176,-0.2961,-0.3768,-0.3773,-0.3778,-0.3782,0,-0.4149,-0.4295,-0.4407,-0.4466,-0.4539,-0.46,-0.4629,-0.4661,-0.4659,-0.4605,-0.4614,-0.457,-0.4646,-0.4599,-0.4585,-0.4512,-0.4354,-0.4585,-0.414,-0.4121,-0.3807,-0.3663,-0.3641,-0.3061,-0.3844,-0.3837,-0.3833,0,-0.4172,-0.4407,-0.4385,-0.4427,-0.4565,-0.4614,-0.4654,-0.4708,-0.4644,-0.4687,-0.4603,-0.4681,-0.4634,-0.4632,-0.4645,-0.4606,-0.4435,-0.4574,-0.4568,-0.4267,-0.4099,-0.3781,-0.3707,-0.4518,-0.4514,-0.4512,-0.3882,0,-0.4328,-0.4384,-0.4412,-0.4519,-0.458,-0.4629,-0.4713,-0.4711,-0.4661,-0.4678,-0.4643,-0.4666,-0.4625,-0.4663,-0.4676,-0.4638,-0.4518,-0.4599,-0.4519,-0.4556,-0.4269,-0.4231,-0.4658,-0.4657,-0.4656,-0.4655,0,0,-0.4267,-0.4374,-0.4451,-0.4526,-0.4557,-0.4596,-0.4642,-0.4675,-0.4701,-0.4663,-0.4633,-0.4604,-0.4595,-0.4602,-0.4642,-0.4665,-0.4527,-0.4583,-0.4574,-0.4565,-0.4557,-0.4286,-0.4251,-0.4652,-0.4652,-0.4651,-0.4651,0,-0.4342,-0.4384,-0.4423,-0.4504,-0.4572,-0.4626,-0.4619,-0.4677,-0.4638,-0.4662,-0.4597,-0.4577,-0.4575,-0.4572,-0.4571,-0.465,-0.447,-0.465,-0.464,-0.4567,-0.456,-0.4554,-0.4287,-0.4257,-0.4648,-0.4648,-0.4648,0,-0.4351,-0.4423,-0.4437,-0.4576,-0.4597,-0.4673,-0.4629,-0.4651,-0.4665,-0.4594,-0.4535,-0.4523,-0.4509,-0.4533,-0.4517,-0.4487,-0.4397,-0.4501,-0.4509,-0.445,-0.4368,-0.4363,-0.4359,-0.4398,-0.4397,-0.4396,0,0,-0.4386,-0.4431,-0.4555,-0.4594,-0.4626,-0.4645,-0.4657,-0.4641,-0.464,-0.4606,-0.4547,-0.4489,-0.4491,-0.4457,-0.4458,-0.4476,-0.4347,-0.447,-0.4482,-0.4492,-0.4441,-0.4362,-0.4359,-0.4393,-0.4393,-0.4393,0,0,-0.439,-0.4506,-0.4495,-0.4568,-0.4643,-0.4719,-0.47,-0.467,-0.4628,-0.4545,-0.4484,-0.4464,-0.4439,-0.4414,-0.4384,-0.4409,-0.4362,-0.4368,-0.4412,-0.4426,-0.4438,-0.4374,-0.4291,0,0,0,0,0,-0.4469,-0.4515,-0.4505,-0.4525,-0.4626,-0.4748,-0.4755,-0.4701,-0.4578,-0.4596,-0.4518,-0.4433,-0.4404,-0.4376,-0.4368,-0.4364,-0.4353,-0.436,-0.4367,-0.4429,-0.4445,-0.4458,0,0,0,0,0,0,-0.4477,-0.4507,-0.4504,-0.459,-0.4611,-0.4745,-0.4637,-0.4625,-0.4576,-0.4554,-0.4458,-0.4436,-0.4408,-0.4374,-0.4368,-0.4365,-0.4292,-0.4356,-0.4362,-0.4368,-0.4435,-0.4447,-0.4458,0,0,0,0,0,-0.4484,-0.4508,-0.4678,-0.4587,-0.4605,-0.4571,-0.463,-0.4619,-0.4549,-0.4524,-0.4497,-0.4493,-0.4415,-0.4398,-0.437,-0.4369,-0.4296,-0.4294,-0.436,-0.4365,-0.4369,-0.4441,0,0,0,0,0,0,-0.4489,-0.4491,-0.468,-0.4684,-0.4521,-0.4558,-0.4562,-0.4614,-0.4515,-0.4496,-0.4564,-0.455,-0.4421,-0.4407,-0.4395,-0.4374,-0.4299,-0.4297,-0.4295,-0.4364,-0.4367,-0.4371,0,0,0,0,0,0,-0.4479,-0.4495,-0.4682,-0.4602,-0.4595,-0.4547,-0.4551,-0.4555,-0.451,-0.4557,-0.4545,-0.4558,-0.4389,-0.4414,-0.4404,-0.4418,-0.4301,-0.4299,-0.4298,-0.4297,-0.4367,-0.437,0,0,0,0,0,0,-0.4484,-0.4498,-0.46,-0.4596,-0.4589,-0.4618,-0.4542,-0.4611,-0.4549,-0.4558,-0.453,-0.4522,-0.4395,-0.4386,-0.4411,-0.443,-0.4421,-0.4301,-0.4299,-0.4298,-0.4298,0,0,0,0,0,0,0,-0.4489,-0.4411,-0.4665,-0.459,-0.4584,-0.4715,-0.4715,-0.4716,-0.4547,-0.4539,-0.4532,-0.4525,-0.4311,-0.4309,-0.4307,-0.4441,0,0,-0.4301,-0.43,0,0,0,0,0,0,0,0,-0.4403,-0.4409,-0.4665,-0.4666,-0.4667,-0.4715,-0.4715,-0.4715,-0.4545,-0.454,-0.4534,-0.4528,-0.431,-0.4309,-0.4307,0,0,0,0,0,0,0,0,0,0,0,0,0,0,0,-0.4665,-0.4666,0,-0.4715,-0.4715,-0.4715,-0.4545,-0.454,-0.4535,-0.453,-0.431,-0.4309,-0.4307,0,0,0,0,0,0,0,0,0,0,0,0,0,0,0,0,0,0,0,0,0,0,0,0,0,0,0,0,0,0,0,0,0,0,0,0,0,0,0,0,0,0,0,0,0,0,0,0,0,0,0,0,0,0,0,0,0,0,0,0,0,0,0,0,0,0,0,0,0]}],[{"header":{"parameterUnit":"kt","parameterCategory":2,"dx":1,"dy":1,"la1":30.253999710083008,"la2":30.299108505249023,"lo1":-89.0895004272461,"lo2":-89.04439544677734,"nx":28,"ny":28,"refTime":"2022-09-21T09:00:00:Z","depth":"2","parameterNumber":3,"parameterNumberName":"V-component_of_CURRENTS"},"data":[-0.0706,-0.0778,-0.0804,-0.0836,-0.0866,-0.0793,-0.0696,-0.042,-0.0206,0.0074,0.0401,0.0624,0.1101,0.1366,0.1529,0.1786,0.1652,0.166,0.1492,0.1768,0.1756,0.1993,0.2018,0,0,0,0,0,-0.0669,-0.0714,-0.0798,-0.0837,-0.0844,-0.0852,-0.0723,-0.0568,-0.0318,-0.0127,0.0082,0.0503,0.0964,0.1163,0.1479,0.1558,0.1553,0.1597,0.1844,0.1844,0.1842,0.1849,0.1852,0.1849,0.1847,0.1844,0,0,-0.0595,-0.065,-0.0701,-0.0771,-0.0799,-0.0752,-0.0715,-0.0593,-0.0437,-0.0186,-0.0079,0.0278,0.054,0.0906,0.1018,0.1171,0.1232,0.1627,0.1636,0.1641,0.1633,0.1475,0.1581,0.1578,0.1576,0.1574,0.1572,0,-0.0493,-0.0518,-0.056,-0.0644,-0.069,-0.0677,-0.067,-0.062,-0.0485,-0.0352,-0.0124,0.0014,0.022,0.067,0.0855,0.1055,0.1429,0.1483,0.1275,0.1931,0.1778,0.1851,0.1838,0.1952,0.1952,0.1951,0.195,0.195,-0.0335,-0.0401,-0.044,-0.0478,-0.0514,-0.0567,-0.057,-0.0499,-0.0434,-0.0261,-0.0187,-0.0053,0.0136,0.0527,0.0798,0.1051,0.1206,0.1469,0.1651,0.1326,0.1398,0.1396,0.1393,0.1941,0.1942,0.1943,0.1944,0,-0.023,-0.0234,-0.0315,-0.0324,-0.0333,-0.04,-0.038,-0.0358,-0.0301,-0.0203,-0.02,0.0043,0.0238,0.0506,0.093,0.1123,0.1401,0.1455,0.1529,0.1609,0.1426,0.1416,0.1445,0.144,0.1435,0.1431,0.1428,0,-0.0059,-0.0128,-0.0124,-0.018,-0.0244,-0.0203,-0.0241,-0.0197,-0.0099,-0.0019,0.0099,0.0218,0.0553,0.0755,0.0999,0.1231,0.1353,0.1498,0.1574,0.1779,0.1776,0.1801,0.18,0.1811,0.1811,0.1811,0.1811,0,0.0095,0.0041,-0.0044,-0.0051,-0.0025,-0.0065,-0.0051,0.0056,0.0103,0.0196,0.0242,0.0449,0.0554,0.0809,0.1072,0.1122,0.1426,0.16,0.1583,0.1568,0.1853,0.1856,0.1812,0.1812,0.1812,0.1812,0.1812,0,0.023,0.0194,0.0087,0.0099,0.0085,0.006,0.0106,0.0137,0.0287,0.0346,0.0458,0.0594,0.0758,0.0861,0.1182,0.1117,0.1271,0.1469,0.1479,0.1392,0.1496,0.1655,0.1679,0.1554,0.1552,0.1551,0.155,0,0.0381,0.0276,0.0301,0.0229,0.0191,0.027,0.0289,0.0366,0.045,0.0527,0.0728,0.082,0.0903,0.0932,0.1085,0.1333,0.1405,0.1352,0.1636,0.164,0.1452,0.1428,0.1655,0.1654,0.1532,0.1534,0.1536,0,0.0502,0.0476,0.0449,0.0425,0.0441,0.0461,0.0456,0.0535,0.0546,0.0644,0.0698,0.0896,0.0955,0.1052,0.1187,0.1333,0.1374,0.1381,0.1395,0.1314,0.1587,0.142,0.1415,0.1527,0.153,0.1533,0.1522,0,0.065,0.0598,0.0553,0.0528,0.0552,0.0522,0.0614,0.0622,0.0649,0.0748,0.0848,0.103,0.1154,0.1232,0.1303,0.1411,0.1378,0.1525,0.1549,0.1559,0.1549,0.1558,0.1485,0.1488,0.149,0.1492,0,0,0.0767,0.0717,0.0762,0.0714,0.0721,0.0803,0.0763,0.0824,0.0905,0.0939,0.0931,0.1165,0.1267,0.1416,0.1408,0.1493,0.1516,0.1395,0.1557,0.1562,0.1569,0.1558,0.1565,0.1497,0.1498,0.1499,0.15,0,0.0836,0.0827,0.0762,0.0796,0.0809,0.0883,0.085,0.0925,0.0941,0.0983,0.1085,0.1175,0.1275,0.1411,0.149,0.1514,0.1543,0.1516,0.1397,0.1573,0.1575,0.1579,0.1567,0.1572,0.1506,0.1505,0.1505,0,0.0936,0.0945,0.093,0.0965,0.0997,0.1004,0.1074,0.1055,0.1066,0.1184,0.117,0.127,0.1418,0.1479,0.1495,0.1511,0.1576,0.1554,0.1546,0.1504,0.1688,0.1691,0.1694,0.1654,0.1653,0.1653,0,0,0.0974,0.0937,0.1025,0.0989,0.0993,0.1078,0.1095,0.1116,0.1176,0.1181,0.1233,0.1307,0.1406,0.1419,0.1511,0.1555,0.1619,0.1561,0.1554,0.1548,0.1502,0.1683,0.1686,0.165,0.165,0.165,0,0,0.1013,0.1059,0.1073,0.1034,0.1096,0.1219,0.1187,0.1221,0.1257,0.1208,0.1309,0.1322,0.1344,0.1418,0.138,0.1491,0.1537,0.1546,0.1394,0.1387,0.1381,0.1298,0.1423,0,0,0,0,0,0.1113,0.106,0.1072,0.1076,0.1151,0.1225,0.1242,0.1272,0.124,0.1224,0.1276,0.1287,0.1441,0.1409,0.1427,0.1398,0.1621,0.1626,0.1631,0.145,0.1442,0.1435,0,0,0,0,0,0,0.1116,0.112,0.1076,0.1189,0.1207,0.1227,0.1254,0.1266,0.124,0.1234,0.1287,0.1293,0.1368,0.1403,0.1418,0.1388,0.1418,0.1623,0.1627,0.1631,0.1448,0.1441,0.1435,0,0,0,0,0,0.1118,0.1122,0.1203,0.1193,0.1209,0.1258,0.1251,0.126,0.1226,0.1332,0.1335,0.1227,0.1371,0.1382,0.1412,0.1379,0.1408,0.1413,0.1626,0.1629,0.1632,0.1444,0,0,0,0,0,0,0.112,0.1168,0.121,0.122,0.1147,0.1256,0.1263,0.1254,0.1324,0.1329,0.1283,0.1279,0.1374,0.1382,0.139,0.1372,0.1399,0.1405,0.1408,0.1628,0.1631,0.1633,0,0,0,0,0,0,0.1166,0.1175,0.1216,0.1155,0.1159,0.1253,0.1259,0.133,0.1322,0.1272,0.1271,0.128,0.1325,0.1382,0.1389,0.1504,0.1392,0.1398,0.1402,0.1404,0.163,0.1633,0,0,0,0,0,0,0.1173,0.1181,0.1153,0.1156,0.116,0.1283,0.1317,0.1371,0.1322,0.1268,0.1311,0.1306,0.1324,0.1333,0.1388,0.1501,0.1504,0.1393,0.1396,0.1399,0.1401,0,0,0,0,0,0,0,0.1178,0.1089,0.1139,0.1158,0.116,0.1312,0.1316,0.132,0.1321,0.1316,0.1312,0.1308,0.1361,0.1367,0.1373,0.1499,0,0,0.1392,0.1395,0,0,0,0,0,0,0,0,0.1089,0.1089,0.1139,0.1141,0.1142,0.1312,0.1316,0.1319,0.132,0.1316,0.1313,0.1309,0.1363,0.1368,0.1372,0,0,0,0,0,0,0,0,0,0,0,0,0,0,0,0.1139,0.114,0,0.1313,0.1315,0.1318,0.1319,0.1316,0.1314,0.1311,0.1364,0.1368,0.1372,0,0,0,0,0,0,0,0,0,0,0,0,0,0,0,0,0,0,0,0,0,0,0,0,0,0,0,0,0,0,0,0,0,0,0,0,0,0,0,0,0,0,0,0,0,0,0,0,0,0,0,0,0,0,0,0,0,0,0,0,0,0,0,0,0,0,0,0,0]}]],[[{"header":{"parameterUnit":"kt","parameterCategory":2,"dx":1,"dy":1,"la1":30.253999710083008,"la2":30.299108505249023,"lo1":-89.0895004272461,"lo2":-89.04439544677734,"nx":28,"ny":28,"refTime":"2022-09-21T09:00:00:Z","depth":"4","parameterNumber":2,"parameterNumberName":"U-component_of_CURRENTS"},"data":[-0.1025,-0.0992,-0.0961,-0.0734,-0.0648,-0.0511,-0.0507,-0.0609,-0.0563,-0.0745,-0.071,-0.0901,-0.0868,-0.0976,-0.089,-0.0909,-0.1226,-0.1084,-0.1081,-0.1718,-0.1762,-0.1801,-0.1816,0,0,0,0,0,-0.1092,-0.1025,-0.1019,-0.096,-0.089,-0.0869,-0.088,-0.0992,-0.112,-0.0925,-0.1101,-0.0986,-0.0981,-0.0962,-0.0928,-0.1057,-0.1397,-0.1012,-0.1549,-0.1746,-0.1794,-0.1792,0,0,0,0,0,0,-0.1146,-0.1137,-0.1158,-0.1187,-0.1144,-0.1024,-0.1151,-0.1122,-0.1136,-0.1361,-0.1163,-0.1307,-0.142,-0.1367,-0.1278,-0.1324,-0.1392,-0.1498,-0.1556,-0.1604,-0.1556,-0.1448,-0.087,0,0,0,0,0,-0.1208,-0.125,-0.1291,-0.1325,-0.1362,-0.1379,-0.1495,-0.1459,-0.1628,-0.1849,-0.1686,-0.1737,-0.1626,-0.1636,-0.1667,-0.1636,-0.2146,-0.1976,-0.2007,-0.2238,-0.2203,-0.2176,-0.2214,-0.1976,-0.1982,-0.1986,-0.1988,0,-0.1294,-0.1311,-0.1448,-0.1465,-0.1561,-0.175,-0.1785,-0.2019,-0.2007,-0.2168,-0.2067,-0.2186,-0.2274,-0.1968,-0.2117,-0.2088,-0.2118,-0.2098,-0.2344,-0.2283,-0.2238,-0.2265,-0.2289,-0.2027,-0.2024,-0.2021,-0.2018,0,-0.1339,-0.1409,-0.1481,-0.1678,-0.1736,-0.1855,-0.2067,-0.2099,-0.2371,-0.2373,-0.2485,-0.2652,-0.2612,-0.2765,-0.2752,-0.2706,-0.258,-0.2476,-0.2874,-0.283,-0.2353,-0.2362,-0.2091,-0.2076,-0.2064,-0.2054,-0.2046,0,-0.143,-0.1485,-0.1656,-0.1674,-0.1785,-0.1982,-0.2119,-0.2264,-0.242,-0.2442,-0.2812,-0.2772,-0.307,-0.3045,-0.3081,-0.287,-0.3014,-0.2829,-0.2752,-0.3214,-0.3219,-0.3115,-0.3109,-0.3181,-0.3183,-0.3185,-0.3186,0,-0.1485,-0.1613,-0.1663,-0.1703,-0.1881,-0.1983,-0.2136,-0.2348,-0.2385,-0.2651,-0.2766,-0.295,-0.3069,-0.3105,-0.3174,-0.3264,-0.3116,-0.3201,-0.2863,-0.2837,-0.3122,-0.3113,-0.3188,-0.3188,-0.3189,-0.3189,-0.319,0,-0.1558,-0.1618,-0.1686,-0.1844,-0.1864,-0.199,-0.2159,-0.2264,-0.2473,-0.2591,-0.2807,-0.2963,-0.3151,-0.3216,-0.3275,-0.3322,-0.3331,-0.3339,-0.3329,-0.2913,-0.283,-0.3053,-0.3172,-0.3173,-0.3174,-0.3175,-0.3176,0,-0.1579,-0.1654,-0.1712,-0.1824,-0.1858,-0.1996,-0.2081,-0.2283,-0.2427,-0.2561,-0.2758,-0.2949,-0.3081,-0.3244,-0.3302,-0.3348,-0.3368,-0.3428,-0.3202,-0.3192,-0.2861,-0.2884,-0.3401,-0.3191,-0.3189,-0.3188,-0.3187,0,-0.1584,-0.167,-0.1684,-0.1729,-0.1883,-0.1964,-0.2072,-0.2229,-0.231,-0.2561,-0.2657,-0.2945,-0.3086,-0.3142,-0.3258,-0.331,-0.3376,-0.3316,-0.331,-0.3213,-0.329,-0.2943,-0.29,-0.3401,-0.3401,-0.3401,-0.3197,0,-0.1622,-0.1677,-0.1684,-0.1772,-0.1854,-0.1942,-0.2052,-0.2174,-0.2299,-0.2436,-0.2647,-0.2801,-0.2963,-0.3054,-0.313,-0.3256,-0.3197,-0.3179,-0.3087,-0.32,-0.3093,-0.3086,-0.3113,-0.3109,-0.3106,-0.3103,0,0,-0.1611,-0.1649,-0.1697,-0.174,-0.1792,-0.1929,-0.1994,-0.2069,-0.2282,-0.2361,-0.241,-0.2685,-0.2773,-0.2925,-0.3042,-0.3063,-0.3017,-0.3065,-0.3159,-0.3166,-0.3172,-0.3076,-0.3073,-0.3098,-0.3096,-0.3095,-0.3094,0,-0.1604,-0.1637,-0.1662,-0.1727,-0.1851,-0.1924,-0.1961,-0.2107,-0.2166,-0.2347,-0.2409,-0.2585,-0.2721,-0.2805,-0.285,-0.3016,-0.2927,-0.3061,-0.3157,-0.3133,-0.3145,-0.3154,-0.3064,-0.3063,-0.3086,-0.3087,-0.3087,0,-0.1585,-0.164,-0.1663,-0.1766,-0.1814,-0.188,-0.1917,-0.2038,-0.2117,-0.2189,-0.2313,-0.2433,-0.2491,-0.2654,-0.2719,-0.2678,-0.2822,-0.283,-0.2846,-0.2805,-0.2771,-0.2786,-0.28,-0.2619,-0.2618,-0.2617,0,0,-0.1583,-0.1621,-0.1715,-0.1773,-0.1786,-0.1885,-0.1935,-0.2036,-0.2137,-0.2186,-0.2267,-0.2354,-0.2445,-0.2513,-0.2583,-0.2712,-0.2623,-0.2779,-0.2801,-0.2819,-0.279,-0.2761,-0.2776,-0.2613,-0.2613,-0.2613,0,0,-0.159,-0.1671,-0.1707,-0.1756,-0.1854,-0.1951,-0.1974,-0.2042,-0.2151,-0.2188,-0.2228,-0.2254,-0.2406,-0.2406,-0.2355,-0.2574,-0.2474,-0.2486,-0.261,-0.2637,-0.2658,-0.261,-0.2319,0,0,0,0,0,-0.1637,-0.1655,-0.1687,-0.1708,-0.1828,-0.1931,-0.1951,-0.2028,-0.204,-0.2086,-0.2185,-0.2165,-0.2405,-0.2361,-0.2378,-0.2479,-0.2565,-0.2573,-0.2581,-0.2767,-0.2796,-0.282,0,0,0,0,0,0,-0.1646,-0.1668,-0.1687,-0.1778,-0.1807,-0.1929,-0.1942,-0.1964,-0.2039,-0.2049,-0.215,-0.2166,-0.2202,-0.2352,-0.2367,-0.2464,-0.2314,-0.2568,-0.2575,-0.2582,-0.2777,-0.28,-0.282,0,0,0,0,0,-0.1653,-0.1671,-0.1842,-0.1779,-0.1804,-0.1913,-0.1943,-0.1961,-0.2027,-0.2101,-0.212,-0.2088,-0.22,-0.2219,-0.236,-0.2458,-0.2304,-0.2309,-0.2573,-0.2578,-0.2584,-0.2788,0,0,0,0,0,0,-0.1658,-0.1686,-0.1849,-0.1861,-0.1783,-0.191,-0.1931,-0.1958,-0.2076,-0.2096,-0.2037,-0.2043,-0.2198,-0.2213,-0.2228,-0.2458,-0.2295,-0.2301,-0.2304,-0.2577,-0.2582,-0.2586,0,0,0,0,0,0,-0.1677,-0.1694,-0.1855,-0.1856,-0.1868,-0.1907,-0.1925,-0.1981,-0.2076,-0.2005,-0.2014,-0.2038,-0.218,-0.2209,-0.2221,-0.2305,-0.2288,-0.2294,-0.2298,-0.23,-0.2581,-0.2584,0,0,0,0,0,0,-0.1686,-0.1701,-0.1853,-0.1862,-0.1873,-0.2003,-0.1958,-0.2078,-0.2077,-0.1998,-0.208,-0.2081,-0.2175,-0.2188,-0.2216,-0.2294,-0.2302,-0.2289,-0.2292,-0.2295,-0.2297,0,0,0,0,0,0,0,-0.1693,-0.1571,-0.1786,-0.1868,-0.1877,-0.1966,-0.1969,-0.1972,-0.2077,-0.2078,-0.2079,-0.208,-0.2257,-0.2263,-0.2269,-0.2286,0,0,-0.2288,-0.2291,0,0,0,0,0,0,0,0,-0.1567,-0.157,-0.1786,-0.1789,-0.1791,-0.1967,-0.1969,-0.1971,-0.2077,-0.2078,-0.2079,-0.208,-0.2259,-0.2264,-0.2268,0,0,0,0,0,0,0,0,0,0,0,0,0,0,0,-0.1787,-0.1789,0,-0.1967,-0.1969,-0.1971,-0.2077,-0.2078,-0.2079,-0.208,-0.226,-0.2264,-0.2268,0,0,0,0,0,0,0,0,0,0,0,0,0,0,0,0,0,0,0,0,0,0,0,0,0,0,0,0,0,0,0,0,0,0,0,0,0,0,0,0,0,0,0,0,0,0,0,0,0,0,0,0,0,0,0,0,0,0,0,0,0,0,0,0,0,0,0,0,0]}],[{"header":{"parameterUnit":"kt","parameterCategory":2,"dx":1,"dy":1,"la1":30.253999710083008,"la2":30.299108505249023,"lo1":-89.0895004272461,"lo2":-89.04439544677734,"nx":28,"ny":28,"refTime":"2022-09-21T09:00:00:Z","depth":"4","parameterNumber":3,"parameterNumberName":"V-component_of_CURRENTS"},"data":[-0.0726,-0.0814,-0.0845,-0.094,-0.101,-0.1112,-0.1162,-0.1211,-0.1106,-0.1123,-0.0876,-0.0829,-0.0399,-0.0668,-0.0005,0.0069,0.0197,0.0523,0.0531,0.0682,0.0673,0.0665,0.0423,0,0,0,0,0,-0.0707,-0.0754,-0.0864,-0.099,-0.1091,-0.1154,-0.1255,-0.1323,-0.1364,-0.1205,-0.1226,-0.0923,-0.0504,-0.0362,-0.0018,-0.0053,0.0349,0.0352,0.0476,0.0676,0.0667,0.0434,0,0,0,0,0,0,-0.0675,-0.0739,-0.0842,-0.0972,-0.1096,-0.1171,-0.1276,-0.1274,-0.1317,-0.1319,-0.1241,-0.101,-0.09,-0.0459,-0.0115,0.0195,0.0318,0.043,0.0434,0.0427,0.021,0.0116,0.0375,0,0,0,0,0,-0.0646,-0.0699,-0.0801,-0.0947,-0.1071,-0.1213,-0.1342,-0.1372,-0.1457,-0.1527,-0.1365,-0.1153,-0.0847,-0.0499,-0.0147,0.0239,0.029,0.0475,0.0474,0.0425,0.038,0.0407,0.0378,0.063,0.0628,0.0628,0.0627,0,-0.0609,-0.0664,-0.0845,-0.0928,-0.1021,-0.1189,-0.1295,-0.1432,-0.1471,-0.1519,-0.1474,-0.13,-0.1174,-0.0589,-0.0339,0.0187,0.027,0.0447,0.0392,0.0361,0.0397,0.0369,0.0343,0.0619,0.062,0.0621,0.0621,0,-0.0582,-0.0662,-0.079,-0.0957,-0.1021,-0.1128,-0.1337,-0.1412,-0.1496,-0.1528,-0.1521,-0.1434,-0.1142,-0.0878,-0.046,-0.0248,0.0099,0.0261,0.0054,0.0097,0.0342,0.0319,0.0606,0.0609,0.0612,0.0614,0.0615,0,-0.0587,-0.067,-0.0811,-0.0869,-0.1015,-0.1119,-0.1272,-0.1343,-0.1425,-0.1442,-0.1403,-0.1368,-0.1132,-0.0911,-0.0616,-0.0233,-0.0229,0.0052,0.0117,-0.0082,-0.0101,-0.0005,-0.0019,0.0077,0.0074,0.0071,0.0069,0,-0.0547,-0.0697,-0.0805,-0.0854,-0.1014,-0.1096,-0.1187,-0.127,-0.1319,-0.1338,-0.1355,-0.1224,-0.1185,-0.0894,-0.063,-0.0614,-0.025,-0.023,0.0023,0.0028,-0.0027,-0.0035,0.0065,0.0065,0.0064,0.0063,0.0062,0,-0.0557,-0.0631,-0.0772,-0.0906,-0.0944,-0.1043,-0.1164,-0.1233,-0.1251,-0.1259,-0.1219,-0.1161,-0.1075,-0.1011,-0.0705,-0.0769,-0.0533,-0.0396,-0.0379,-0.032,-0.0287,-0.0141,-0.0152,-0.0156,-0.016,-0.0163,-0.0166,0,-0.0478,-0.0613,-0.0673,-0.0807,-0.0875,-0.0921,-0.1011,-0.105,-0.1072,-0.109,-0.1044,-0.1074,-0.0993,-0.1003,-0.0892,-0.077,-0.061,-0.0767,-0.0342,-0.033,-0.0286,-0.029,-0.059,-0.0213,-0.0207,-0.0203,-0.02,0,-0.041,-0.0539,-0.055,-0.06,-0.0699,-0.0755,-0.0844,-0.0893,-0.0922,-0.0919,-0.0938,-0.1,-0.0933,-0.0942,-0.0904,-0.0808,-0.0674,-0.0677,-0.0669,-0.0479,-0.0341,-0.0343,-0.0314,-0.0605,-0.0602,-0.06,-0.0233,0,-0.04,-0.0452,-0.0494,-0.0569,-0.063,-0.0693,-0.0722,-0.0758,-0.0749,-0.0729,-0.077,-0.0785,-0.0792,-0.0832,-0.0794,-0.0778,-0.0655,-0.0654,-0.0534,-0.0602,-0.0436,-0.0411,-0.0678,-0.0676,-0.0674,-0.0672,0,0,-0.0289,-0.0357,-0.0366,-0.0432,-0.0469,-0.0457,-0.0532,-0.055,-0.0563,-0.0551,-0.0534,-0.0582,-0.0604,-0.0646,-0.0682,-0.0712,-0.0562,-0.0612,-0.061,-0.0604,-0.0598,-0.0441,-0.0419,-0.0669,-0.0669,-0.0668,-0.0667,0,-0.0277,-0.0284,-0.0335,-0.0375,-0.041,-0.0424,-0.0441,-0.0456,-0.0443,-0.0505,-0.0442,-0.0477,-0.0517,-0.052,-0.0531,-0.0673,-0.0502,-0.0682,-0.0698,-0.0599,-0.0595,-0.0591,-0.0438,-0.0419,-0.0663,-0.0663,-0.0664,0,-0.0208,-0.022,-0.0237,-0.0286,-0.03,-0.0362,-0.0286,-0.033,-0.0366,-0.0275,-0.0307,-0.0307,-0.031,-0.0376,-0.0402,-0.0348,-0.0391,-0.0455,-0.0466,-0.0431,-0.0321,-0.032,-0.0319,-0.0311,-0.031,-0.0309,0,0,-0.0188,-0.0222,-0.0237,-0.0277,-0.0294,-0.0287,-0.0302,-0.0285,-0.0281,-0.0275,-0.0246,-0.0236,-0.0272,-0.0266,-0.0301,-0.0359,-0.0249,-0.0412,-0.0429,-0.0442,-0.0416,-0.0311,-0.0312,-0.0305,-0.0304,-0.0304,0,0,-0.017,-0.0181,-0.0162,-0.0206,-0.0239,-0.0242,-0.0268,-0.0242,-0.0244,-0.0218,-0.0159,-0.0151,-0.0214,-0.0192,-0.0137,-0.0268,-0.0201,-0.0212,-0.0263,-0.0284,-0.03,-0.0256,-0.0058,0,0,0,0,0,-0.0143,-0.0187,-0.0171,-0.0175,-0.0201,-0.0261,-0.0265,-0.0223,-0.0164,-0.0204,-0.0159,-0.0112,-0.0156,-0.0104,-0.0109,-0.0174,-0.0247,-0.0257,-0.0267,-0.0351,-0.0373,-0.0391,0,0,0,0,0,0,-0.0145,-0.0152,-0.0169,-0.0173,-0.0178,-0.0258,-0.0162,-0.0153,-0.0159,-0.0148,-0.0122,-0.0112,-0.0074,-0.0099,-0.0104,-0.0167,-0.0057,-0.0251,-0.026,-0.0267,-0.0359,-0.0376,-0.0392,0,0,0,0,0,-0.0146,-0.0152,-0.0197,-0.0172,-0.0176,-0.014,-0.0158,-0.015,-0.0155,-0.0115,-0.0104,-0.0119,-0.0078,-0.0077,-0.0102,-0.0166,-0.0053,-0.0055,-0.0257,-0.0264,-0.027,-0.0367,0,0,0,0,0,0,-0.0147,-0.0155,-0.0198,-0.0198,-0.013,-0.0135,-0.0133,-0.0148,-0.0121,-0.0112,-0.0109,-0.01,-0.0082,-0.008,-0.008,-0.0169,-0.005,-0.0052,-0.0053,-0.0262,-0.0267,-0.0272,0,0,0,0,0,0,-0.0152,-0.0156,-0.0198,-0.0148,-0.0142,-0.013,-0.0128,-0.0163,-0.012,-0.0116,-0.0108,-0.0105,-0.0064,-0.0083,-0.0083,-0.0141,-0.0048,-0.005,-0.0051,-0.0052,-0.0266,-0.027,0,0,0,0,0,0,-0.0153,-0.0157,-0.0147,-0.0143,-0.0138,-0.0141,-0.0159,-0.0178,-0.0103,-0.0118,-0.0091,-0.0086,-0.0068,-0.0067,-0.0085,-0.0144,-0.0141,-0.0048,-0.0049,-0.005,-0.0051,0,0,0,0,0,0,0,-0.0154,-0.0134,-0.0191,-0.014,-0.0135,-0.0199,-0.02,-0.02,-0.0102,-0.0097,-0.0092,-0.0088,-0.0037,-0.0039,-0.0041,-0.0146,0,0,-0.0048,-0.0049,0,0,0,0,0,0,0,0,-0.0132,-0.0134,-0.0191,-0.0191,-0.0191,-0.0199,-0.02,-0.02,-0.0101,-0.0097,-0.0093,-0.009,-0.0037,-0.0039,-0.0041,0,0,0,0,0,0,0,0,0,0,0,0,0,0,0,-0.0191,-0.0191,0,-0.0199,-0.02,-0.02,-0.01,-0.0097,-0.0094,-0.0091,-0.0038,-0.0039,-0.0041,0,0,0,0,0,0,0,0,0,0,0,0,0,0,0,0,0,0,0,0,0,0,0,0,0,0,0,0,0,0,0,0,0,0,0,0,0,0,0,0,0,0,0,0,0,0,0,0,0,0,0,0,0,0,0,0,0,0,0,0,0,0,0,0,0,0,0,0,0]}]]]